Location: Pic du Midi - T1M
(42.9366°N, 0.1426°E)
Time: 17:43:23
(UTC+01:00)

Nauka - Pass Details

Date: 27 September 2021
Orbit: 417 x 423 km, 51.6° (Epoch: 24 October)

Event Time Altitude Azimuth Distance (km) Brightness Sun altitude
Rises 19:08:25 0° 289° (WNW) 2,354 ? -4.6°
Reaches altitude 10° 19:10:57 10° 309° (NW) 1,493 ? -5.1°
Maximum altitude 19:13:23 18° 356° (N) 1,086 ? -5.5°
Drops below altitude 10° 19:15:50 10° 42° (NE) 1,496 ? -6.0°
Enters shadow 19:17:27 - 57° (ENE) 2,025 ? -6.3°
